Location: Ellingshausen
(50.5460°N, 10.4723°E)
Time: 20:42:44
(UTC+00:00)

Cosmos 1190 Rocket - Pass Details

Date: 18 January 2026
Orbit: 753 x 775 km, 74.1° (Epoch: 16 February)

Event Time Altitude Azimuth Distance (km) Brightness Sun altitude
Rises 06:11:04 0° 201° (SSW) 3,206 7.2 -9.3°
Reaches altitude 10° 06:13:25 10° 201° (SSW) 2,282 6.5 -8.9°
Maximum altitude 06:18:36 88° 111° (ESE) 763 4.0 -8.1°
Drops below altitude 10° 06:23:48 10° 25° (NNE) 2,290 6.5 -7.4°
Sets 06:26:11 0° 25° (NNE) 3,218 7.2 -7.0°
